Weather in Krasny Steklovar

Russia / Mari El Republic     56°13′20″N   48°47′27″E
temp.,
°C
wind,
m/s
gust,
m/s
humid.,
%
clouds,
%
prec.,
mm/h
press.,
hPa
HPBL,
m
27 february, sat
sat2700:00−13se71494100 5.8 1000661
03:00−12ese51194100 7.0 998460
06:00−13e5995100 0.9 997400
09:00−12ene5894100 1.8 998399
12:00−11ne5893100 0.6 999576
15:00−10nne5893100 1.2 1001658
18:00−13n51192100 0.4 1003540
21:00−14n4109499 0.4 1005309
28 february, sun
sun2800:00−16n4995100 0.0 1005244
03:00−18n499587 0.0 1007230
06:00−20n499636 0.0 1008222
09:00−17n489330 0.0 1009282
12:00−13n478950 0.0 1011433
15:00−13n478966 0.0 1012480
18:00−18nnw369699 0.0 1014112
21:00−20n239877 0.0 101723
1 march, mon
mon100:00−21nnw22970 0.0 101820
03:00−22nnw22970 0.0 102020
06:00−23nnw22976 0.0 102120
09:00−18nnw12923 0.0 1022155
12:00−13wnw128428 0.0 1021373
15:00−11wsw248859 0.0 1021437
18:00−16sw359892 0.0 101985
21:00−16sw389788 0.0 1018190
2 march, tue
tue200:00−13ssw41096100 0.0 1014274
03:00−11ssw51195100 0.1 1010336
06:00−9ssw51294100 0.9 1005478
09:00−5ssw61194100 1.8 1002491
12:00−1ssw5999100 1.0 999555
15:000w4799100 2.8 998451
18:00−1w3898100 0.8 998415
21:00−1nw51197100 1.7 998662
3 march, wed
wed300:00−2nnw61296100 1.6 999715
03:00−4nnw61294100 2.1 1000559
06:00−5nnw51293100 0.2 1001525
09:00−5nnw499498 0.3 1003458
12:00−3nnw5891100 0.2 1004701
15:00−3nnw6988100 0.4 1006864
18:00−6nnw41091100 0.1 1007718
21:00−8nw379499 0.2 1009169